User: anonymous   Login
Location: Newark
(41.0400°S, 62.7845°W)
Time: 03:06:01
(UTC+00:00)
Language:

STARLINK-3101 - Orbit

View from above orbital plane
View from above orbital plane
View from above satellite
View from above satellite

Ground track
Ground track

The orbit data is extracted from the following two-line orbital elements,

1 49168U 21082AQ  22019.91667824 -.00024233  00000-0 -20165-3 0  9991
2 49168  70.0012 127.5894 0003959 290.7114 279.8278 15.69763877 21360
Epoch (UTC): 19 January 2022 22:00:01
Eccentricity: 0.0003959
inclination: 70.0012°
perigee height: 357 km
apogee height: 362 km
right ascension of ascending node: 127.5894°
argument of perigee: 290.7114°
revolutions per day: 15.69763877
mean anomaly at epoch: 279.8278°
orbit number at epoch: 2136

The dashed part of the orbit path shows where the satellite is in the earth's shadow,  

DLR